This is the latest recevied weather packets stored in our database for station/object KK6MIG-13. If no packets are shown the sender has not sent any weather packets the latest 1 day(s).
| Time | Temp. | Humidity | Pressure | Rain* | Wind** | Luminosity | Snow |
|---|---|---|---|---|---|---|---|
| 1778015448 | 15.56° C | 1% | 1014.9 hPa | 0 mm | 4.47 m/s, 245° | 863 W/m² | - |
| 1778015444 | 15.56° C | 1% | 1015 hPa | 0 mm | 4.47 m/s, 261° | 823 W/m² | - |
| 1778015319 | 15.56° C | 1% | 1014.9 hPa | 0 mm | 4.47 m/s, 265° | 944 W/m² | - |
| 1778015260 | 15.56° C | 1% | 1015 hPa | 0 mm | 4.47 m/s, 155° | 963 W/m² | - |
| 1778015202 | 15.56° C | 1% | 1014.9 hPa | 0 mm | 4.47 m/s, 275° | 976 W/m² | - |
| 1778015197 | 15.56° C | 1% | 1014.9 hPa | 0 mm | 4.47 m/s, 265° | 976 W/m² | - |
| 1778015073 | 15.56° C | 1% | 1014.9 hPa | 0 mm | 4.47 m/s, 294° | 976 W/m² | - |
| 1778015013 | 15.56° C | 1% | 1015 hPa | 0 mm | 4.47 m/s, 290° | 976 W/m² | - |
| 1778014953 | 15.56° C | 1% | 1014.9 hPa | 0 mm | 4.47 m/s, 254° | 1044 W/m² | - |
| 1778014893 | 15.56° C | 1% | 1014.9 hPa | 0 mm | 4.02 m/s, 271° | 1109 W/m² | - |
| 1778014827 | 15.56° C | 1% | 1015 hPa | 0 mm | 4.47 m/s, 242° | 1206 W/m² | - |
| 1778014767 | 15.56° C | 4% | 1014.9 hPa | 0 mm | 4.47 m/s, 0° | 1197 W/m² | - |
| 1778014707 | 15.56° C | 2% | 1014.9 hPa | 0 mm | 4.02 m/s, 313° | 1136 W/m² | - |
| 1778014647 | 15.56° C | 2% | 1014.9 hPa | 0 mm | 4.02 m/s, 223° | 1136 W/m² | - |
| 1778014587 | 15.56° C | 8% | 1014.9 hPa | 0 mm | 4.02 m/s, 243° | 1141 W/m² | - |
| 1778014524 | 16.11° C | 7% | 1014.9 hPa | 0 mm | 4.02 m/s, 245° | 1072 W/m² | - |
| 1778014463 | 16.11° C | 5% | 1014.9 hPa | 0 mm | 4.02 m/s, 248° | 1072 W/m² | - |
| 1778014403 | 16.11° C | 5% | 1014.8 hPa | 0 mm | 4.02 m/s, 279° | 1069 W/m² | - |
| 1778014350 | 15.56° C | 10% | 1014.9 hPa | 0 mm | 4.02 m/s, 277° | 972 W/m² | - |
| 1778014345 | 15.56° C | 7% | 1014.9 hPa | 0 mm | 4.02 m/s, 228° | 1081 W/m² | - |
| 1778014215 | 15.56° C | 14% | 1014.9 hPa | 0 mm | 4.02 m/s, 220° | 972 W/m² | - |
| 1778014155 | 16.11° C | 10% | 1014.9 hPa | 0 mm | 4.02 m/s, 250° | 900 W/m² | - |
| 1778014103 | 15.56° C | 11% | 1015 hPa | 0 mm | 4.02 m/s, 263° | 826 W/m² | - |
| 1778014099 | 16.11° C | 9% | 1014.9 hPa | 0 mm | 4.02 m/s, 207° | 846 W/m² | - |
| 1778013975 | 15.56° C | 14% | 1014.9 hPa | 0 mm | 4.47 m/s, 341° | 853 W/m² | - |
* Rain latest hour (hover to see other rain measurements)
** Current wind speed in m/s (hover to see current wind gust speed)